El Paso, TX

9:22 PM MDT on July 20, 2017 (GMT -0600)
El Paso International

Weather History for KELP - February, 2012

Change the Weather History Date:

Monday, February 20, 2012

  Actual Average Record
Temperature  
Mean Temperature 51 °F 51 °F  
Max Temperature 63 °F 64 °F 83 °F (1972)
Min Temperature 38 °F 38 °F 22 °F (1988)
Degree Days  
Heating Degree Days 14 14  
Month to date heating degree days 328 316  
Since 1 July heating degree days 1936 2001  
Cooling Degree Days 0 0  
Month to date cooling degree days 0 0  
Year to date cooling degree days 0 0  
Growing Degree Days 4 (Base 50)    
Moisture  
Dew Point 20 °F    
Average Humidity 32    
Maximum Humidity 49    
Minimum Humidity 14    
Precipitation  
Precipitation 0.00 in 0.01 in 0.99 in (2003)
Month to date precipitation 0.02 0.35  
Year to date precipitation 0.68 0.75  
Snow  
Snow 0.00 in - - ()
Month to date snowfall 0.0  
Since 1 July snowfall 3.2  
Snow Depth 0.00 in    
Sea Level Pressure  
Sea Level Pressure 29.94 in    
Wind  
Wind Speed 11 mph (WNW)    
Max Wind Speed 29 mph    
Max Gust Speed 38 mph    
Visibility 10 miles    
Events      
T = Trace of Precipitation, MM = Missing Value Source: NWS Daily Summary

Daily Weather History Graph

Daily Weather History Graph

Search for Another Location

Airport or City:

Trip Planner

Search our weather history database for the weather conditions in past years. The results will help you decide how hot, cold, wet, or windy it might be!

Date:

Astronomy

Feb. 20, 2012 Rise Set
Actual Time 6:42 AM MST 5:56 PM MST
Civil Twilight 6:18 AM MST 6:20 PM MST
Nautical Twilight 5:49 AM MST 6:49 PM MST
Astronomical Twilight 5:21 AM MST 7:17 PM MST
Moon 5:39 AM MST (2/20) 5:03 PM MST (2/20)
Length of Visible Light 12h 02m
Length of Day
11h 13m
Waning Crescent, 1% of the Moon is Illuminated
Feb 20
Waning Crescent
Feb 21
New
Feb 29
First Quarter
Mar 8
Full
Mar 14
Last Quarter

Hourly Weather History & Observations

Time (MST) Temp. Windchill Dew Point Humidity Pressure Visibility Wind Dir Wind Speed Gust Speed Precip Events Conditions
12:51 AM 52.0 °F - 21.9 °F 31% 29.79 in 10.0 mi WNW 26.5 mph 35.7 mph N/A   Partly Cloudy
1:51 AM 51.1 °F - 24.1 °F 35% 29.80 in 10.0 mi West 21.9 mph 32.2 mph N/A   Clear
2:51 AM 50.0 °F - 25.0 °F 38% 29.81 in 10.0 mi West 24.2 mph 33.4 mph N/A   Partly Cloudy
3:51 AM 48.2 °F - 26.6 °F 43% 29.93 in 10.0 mi West 16.1 mph 25.3 mph N/A   Scattered Clouds
4:51 AM 48.0 °F - 27.0 °F 44% 29.83 in 10.0 mi WSW 15.0 mph 23.0 mph N/A   Mostly Cloudy
5:51 AM 46.9 °F - 28.0 °F 48% 29.87 in 10.0 mi West 9.2 mph 18.4 mph N/A   Scattered Clouds
6:51 AM 46.9 °F - 27.0 °F 46% 29.92 in 10.0 mi West 11.5 mph 21.9 mph N/A   Partly Cloudy
7:51 AM 46.0 °F 42.5 °F 28.0 °F 50% 29.95 in 10.0 mi South 6.9 mph 20.7 mph N/A   Partly Cloudy
8:51 AM 48.0 °F - 28.0 °F 46% 29.97 in 10.0 mi SE 9.2 mph - N/A   Partly Cloudy
9:51 AM 52.0 °F - 25.0 °F 35% 29.99 in 10.0 mi WNW 9.2 mph 17.3 mph N/A   Partly Cloudy
10:51 AM 53.1 °F - 23.0 °F 31% 30.00 in 10.0 mi Calm Calm - N/A   Clear
11:51 AM 59.0 °F - 21.0 °F 23% 29.98 in 10.0 mi WNW 11.5 mph - N/A   Clear
12:51 PM 60.1 °F - 18.0 °F 20% 29.95 in 10.0 mi WSW 9.2 mph 25.3 mph N/A   Clear
1:51 PM 61.0 °F - 16.0 °F 17% 29.94 in 10.0 mi West 12.7 mph - N/A   Clear
2:51 PM 62.1 °F - 14.0 °F 15% 29.92 in 10.0 mi West 15.0 mph - N/A   Clear
3:51 PM 61.0 °F - 12.9 °F 15% 29.92 in 10.0 mi WNW 11.5 mph - N/A   Clear
4:51 PM 61.0 °F - 12.9 °F 15% 29.92 in 10.0 mi West 12.7 mph - N/A   Clear
5:51 PM 59.0 °F - 12.9 °F 16% 29.95 in 10.0 mi WNW 4.6 mph - N/A   Clear
6:51 PM 57.0 °F - 14.0 °F 18% 29.98 in 10.0 mi Calm Calm - N/A   Clear
7:51 PM 52.0 °F - 14.0 °F 22% 30.01 in 10.0 mi ENE 3.5 mph - N/A   Clear
8:51 PM 48.0 °F - 18.0 °F 30% 30.03 in 10.0 mi North 6.9 mph - N/A   Clear
9:51 PM 46.9 °F - 18.0 °F 32% 30.02 in 10.0 mi North 8.1 mph - N/A   Clear
10:51 PM 45.0 °F 42.6 °F 18.0 °F 34% 30.04 in 10.0 mi NE 4.6 mph - N/A   Clear
11:51 PM 39.0 °F 35.7 °F 16.0 °F 39% 30.04 in 10.0 mi NE 4.6 mph - N/A   Clear